Location: Vihti�l�
(61.3833°N, 23.0667°E)
Time: 04:48:58
(UTC+00:00)

CZ-2C R/B - Pass Details

Date: 29 November 2020
Orbit: 784 x 870 km, 98.2° (Epoch: 22 January)

Event Time Altitude Azimuth Distance (km) Brightness Sun altitude
Rises 03:10:52 0° 126° (SE) 3,394 6.6 -26.6°
Reaches altitude 10° 03:13:25 10° 118° (ESE) 2,449 5.8 -26.3°
Maximum altitude 03:18:17 36° 54° (NE) 1,291 4.0 -25.7°
Drops below altitude 10° 03:23:06 10° 350° (N) 2,410 5.0 -25.1°
Enters shadow 03:23:28 - 348° (NNW) 2,540 5.1 -25.1°
